Time,TemperatureF,DewpointF,PressureIn,WindDirection,WindDirectionDegrees,WindSpeedMPH,WindSpeedGustMPH,Humidity,HourlyPrecipIn,Conditions,Clouds,dailyrainin,SoftwareType,DateUTC
2013-02-25 00:01:00,67.0,66.0,29.95,East,101,4.0,9.0,97,0.00,,,0.00,,2013-02-25 05:01:00,
2013-02-25 00:11:00,67.0,66.0,29.95,East,101,4.0,9.0,97,0.00,,,0.00,,2013-02-25 05:11:00,
2013-02-25 00:22:00,67.0,66.0,29.93,East,97,3.0,7.0,97,0.00,,,0.00,,2013-02-25 05:22:00,
2013-02-25 00:32:00,67.0,66.0,29.93,East,91,2.0,7.0,97,0.00,,,0.00,,2013-02-25 05:32:00,
2013-02-25 00:42:00,67.0,66.0,29.93,East,91,2.0,7.0,97,0.00,,,0.00,,2013-02-25 05:42:00,
2013-02-25 00:52:00,67.0,66.0,29.92,East,95,2.0,5.0,97,0.00,,,0.00,,2013-02-25 05:52:00,
2013-02-25 01:02:00,67.0,66.0,29.91,ENE,59,3.0,8.0,97,0.00,,,0.00,,2013-02-25 06:02:00,
2013-02-25 01:12:00,67.0,66.0,29.91,ENE,59,3.0,8.0,97,0.00,,,0.00,,2013-02-25 06:12:00,
2013-02-25 01:21:00,67.0,66.0,29.91,ENE,59,3.0,8.0,97,0.00,,,0.00,,2013-02-25 06:21:00,
2013-02-25 01:32:00,67.0,66.0,29.91,ENE,59,3.0,8.0,97,0.00,,,0.00,,2013-02-25 06:32:00,
2013-02-25 02:11:00,67.0,66.0,29.90,ENE,71,1.0,4.0,97,0.00,,,0.00,,2013-02-25 07:11:00,
2013-02-25 02:21:00,67.0,66.0,29.90,ENE,71,1.0,4.0,97,0.00,,,0.00,,2013-02-25 07:21:00,
2013-02-25 02:32:00,67.0,66.0,29.90,ENE,57,1.0,4.0,97,0.00,,,0.00,,2013-02-25 07:32:00,
2013-02-25 02:42:00,67.0,66.0,29.90,ENE,57,1.0,4.0,97,0.00,,,0.00,,2013-02-25 07:42:00,
2013-02-25 02:52:00,67.0,66.0,29.91,NE,38,0.0,4.0,97,0.00,,,0.00,,2013-02-25 07:52:00,
2013-02-25 03:01:00,67.0,66.0,29.91,ENE,67,0.0,2.0,97,0.00,,,0.00,,2013-02-25 08:01:00,
2013-02-25 03:11:00,67.0,66.0,29.91,ENE,67,0.0,2.0,97,0.00,,,0.00,,2013-02-25 08:11:00,
2013-02-25 03:22:00,67.0,66.0,29.89,ENE,61,0.0,2.0,97,0.00,,,0.00,,2013-02-25 08:22:00,
2013-02-25 03:32:00,66.0,65.0,29.89,ENE,61,0.0,1.0,97,0.00,,,0.00,,2013-02-25 08:32:00,
2013-02-25 03:42:00,66.0,65.0,29.89,ENE,61,0.0,1.0,97,0.00,,,0.00,,2013-02-25 08:42:00,
2013-02-25 03:52:00,66.0,65.0,29.88,East,93,0.0,3.0,98,0.00,,,0.00,,2013-02-25 08:52:00,
2013-02-25 04:02:00,66.0,65.0,29.88,ESE,118,1.0,3.0,98,0.00,,,0.00,,2013-02-25 09:02:00,
2013-02-25 04:12:00,66.0,65.0,29.88,ESE,118,1.0,3.0,98,0.00,,,0.00,,2013-02-25 09:12:00,
2013-02-25 04:21:00,66.0,65.0,29.87,East,94,1.0,4.0,98,0.00,,,0.00,,2013-02-25 09:21:00,
2013-02-25 04:32:00,66.0,65.0,29.87,ESE,110,1.0,3.0,98,0.00,,,0.00,,2013-02-25 09:32:00,
2013-02-25 04:42:00,66.0,65.0,29.87,ESE,110,1.0,3.0,98,0.00,,,0.00,,2013-02-25 09:42:00,
2013-02-25 04:52:00,66.0,65.0,29.87,East,93,1.0,4.0,98,0.00,,,0.00,,2013-02-25 09:52:00,
2013-02-25 05:01:00,66.0,65.0,29.87,ESE,115,0.0,4.0,98,0.00,,,0.00,,2013-02-25 10:01:00,
2013-02-25 05:11:00,66.0,65.0,29.87,ESE,115,0.0,4.0,98,0.00,,,0.00,,2013-02-25 10:11:00,
2013-02-25 05:21:00,66.0,65.0,29.86,ESE,109,1.0,5.0,98,0.01,,,0.01,,2013-02-25 10:21:00,
2013-02-25 05:32:00,66.0,65.0,29.87,ESE,108,1.0,3.0,98,0.01,,,0.01,,2013-02-25 10:32:00,
2013-02-25 05:42:00,66.0,65.0,29.87,ESE,108,1.0,3.0,98,0.01,,,0.01,,2013-02-25 10:42:00,
2013-02-25 05:52:00,66.0,65.0,29.87,SE,126,0.0,2.0,98,0.01,,,0.01,,2013-02-25 10:52:00,
2013-02-25 06:01:00,66.0,65.0,29.86,East,82,1.0,4.0,98,0.01,,,0.01,,2013-02-25 11:01:00,
2013-02-25 06:11:00,66.0,65.0,29.86,East,82,1.0,4.0,98,0.01,,,0.01,,2013-02-25 11:11:00,
2013-02-25 06:22:00,66.0,65.0,29.86,ESE,113,2.0,6.0,98,0.00,,,0.01,,2013-02-25 11:22:00,
2013-02-25 06:32:00,66.0,65.0,29.87,East,86,1.0,5.0,98,0.00,,,0.01,,2013-02-25 11:32:00,
2013-02-25 06:42:00,66.0,65.0,29.87,East,86,1.0,5.0,98,0.00,,,0.01,,2013-02-25 11:42:00,
2013-02-25 06:52:00,66.0,65.0,29.87,SE,138,2.0,5.0,98,0.00,,,0.01,,2013-02-25 11:52:00,
2013-02-25 07:02:00,66.0,65.0,29.88,SE,135,0.0,5.0,98,0.00,,,0.01,,2013-02-25 12:02:00,
2013-02-25 07:11:00,66.0,65.0,29.88,SE,135,0.0,5.0,98,0.00,,,0.01,,2013-02-25 12:11:00,
2013-02-25 07:22:00,66.0,65.0,29.88,SE,136,0.0,2.0,98,0.00,,,0.01,,2013-02-25 12:22:00,
2013-02-25 07:32:00,66.0,65.0,29.90,South,184,0.0,3.0,98,0.00,,,0.01,,2013-02-25 12:32:00,
2013-02-25 07:42:00,66.0,65.0,29.90,South,184,0.0,3.0,98,0.00,,,0.01,,2013-02-25 12:42:00,
2013-02-25 07:54:00,66.0,65.0,29.90,South,184,0.0,3.0,98,0.00,,,0.01,,2013-02-25 12:54:00,
2013-02-25 08:02:00,67.0,66.0,29.90,SE,132,1.0,4.0,98,0.00,,,0.01,,2013-02-25 13:02:00,
2013-02-25 08:12:00,67.0,66.0,29.90,SE,132,1.0,4.0,98,0.00,,,0.01,,2013-02-25 13:12:00,
2013-02-25 08:23:00,67.0,66.0,29.89,SSE,152,3.0,7.0,98,0.00,,,0.01,,2013-02-25 13:23:00,
2013-02-25 08:32:00,68.0,68.0,29.90,SSE,160,1.0,6.0,99,0.00,,,0.01,,2013-02-25 13:32:00,
2013-02-25 08:42:00,68.0,68.0,29.90,SSE,160,1.0,6.0,99,0.00,,,0.01,,2013-02-25 13:42:00,
2013-02-25 08:52:00,69.0,69.0,29.91,SE,142,1.0,5.0,99,0.00,,,0.01,,2013-02-25 13:52:00,
2013-02-25 09:03:00,69.0,68.0,29.91,SSE,149,4.0,9.0,98,0.00,,,0.01,,2013-02-25 14:03:00,
2013-02-25 09:18:00,69.0,68.0,29.91,SSE,149,4.0,9.0,98,0.00,,,0.01,,2013-02-25 14:18:00,
2013-02-25 09:32:00,70.0,69.0,29.91,ESE,123,2.0,7.0,98,0.00,,,0.01,,2013-02-25 14:32:00,
2013-02-25 09:42:00,70.0,69.0,29.91,ESE,123,2.0,7.0,98,0.00,,,0.01,,2013-02-25 14:42:00,
2013-02-25 09:52:00,73.0,71.0,29.91,ESE,123,3.0,6.0,94,0.00,,,0.01,,2013-02-25 14:52:00,
2013-02-25 10:03:00,75.0,71.0,29.91,SE,146,1.0,6.0,86,0.00,,,0.01,,2013-02-25 15:03:00,
2013-02-25 10:11:00,75.0,71.0,29.91,SE,146,1.0,6.0,86,0.00,,,0.01,,2013-02-25 15:11:00,
2013-02-25 10:22:00,76.0,70.0,29.91,SSW,196,1.0,8.0,82,0.00,,,0.01,,2013-02-25 15:22:00,
2013-02-25 10:32:00,79.0,71.0,29.90,SSE,148,2.0,7.0,76,0.00,,,0.01,,2013-02-25 15:32:00,
2013-02-25 10:42:00,79.0,71.0,29.90,SSE,148,2.0,7.0,76,0.00,,,0.01,,2013-02-25 15:42:00,
2013-02-25 10:52:00,80.0,69.0,29.90,SE,145,4.0,10.0,69,0.00,,,0.01,,2013-02-25 15:52:00,
2013-02-25 11:02:00,80.0,67.0,29.90,SE,144,3.0,8.0,65,0.00,,,0.01,,2013-02-25 16:02:00,
2013-02-25 11:12:00,80.0,67.0,29.90,SE,144,3.0,8.0,65,0.00,,,0.01,,2013-02-25 16:12:00,
2013-02-25 11:22:00,81.0,67.0,29.89,SW,218,5.0,12.0,62,0.00,,,0.01,,2013-02-25 16:22:00,
2013-02-25 11:32:00,81.0,69.0,29.89,SSW,198,1.0,7.0,66,0.00,,,0.01,,2013-02-25 16:32:00,
2013-02-25 11:42:00,81.0,69.0,29.89,SSW,198,1.0,7.0,66,0.00,,,0.01,,2013-02-25 16:42:00,
2013-02-25 11:51:00,81.0,68.0,29.88,SSE,166,2.0,10.0,65,0.00,,,0.01,,2013-02-25 16:51:00,
2013-02-25 12:02:00,81.0,68.0,29.89,South,171,3.0,7.0,64,0.00,,,0.01,,2013-02-25 17:02:00,
2013-02-25 12:11:00,81.0,68.0,29.89,South,171,3.0,7.0,64,0.00,,,0.01,,2013-02-25 17:11:00,
2013-02-25 12:21:00,81.0,68.0,29.88,SSW,205,4.0,8.0,64,0.00,,,0.01,,2013-02-25 17:21:00,
2013-02-25 12:32:00,82.0,68.0,29.87,SSW,201,3.0,7.0,63,0.00,,,0.01,,2013-02-25 17:32:00,
2013-02-25 12:42:00,82.0,68.0,29.87,SSW,201,3.0,7.0,63,0.00,,,0.01,,2013-02-25 17:42:00,
2013-02-25 12:52:00,84.0,68.0,29.87,SW,220,4.0,9.0,59,0.00,,,0.01,,2013-02-25 17:52:00,
2013-02-25 13:02:00,83.0,68.0,29.86,ESE,118,2.0,8.0,60,0.00,,,0.01,,2013-02-25 18:02:00,
2013-02-25 13:12:00,83.0,68.0,29.86,ESE,118,2.0,8.0,60,0.00,,,0.01,,2013-02-25 18:12:00,
2013-02-25 13:21:00,83.0,67.0,29.85,SSE,161,2.0,8.0,59,0.00,,,0.01,,2013-02-25 18:21:00,
2013-02-25 13:33:00,83.0,66.0,29.84,SSE,165,4.0,11.0,56,0.00,,,0.01,,2013-02-25 18:33:00,
2013-02-25 13:42:00,83.0,66.0,29.84,SSE,165,4.0,11.0,56,0.00,,,0.01,,2013-02-25 18:42:00,
2013-02-25 13:51:00,85.0,66.0,29.84,SW,218,5.0,13.0,54,0.00,,,0.01,,2013-02-25 18:51:00,
2013-02-25 14:02:00,88.0,65.0,29.83,WSW,237,5.0,11.0,47,0.00,,,0.01,,2013-02-25 19:02:00,
2013-02-25 14:11:00,88.0,65.0,29.83,WSW,237,5.0,11.0,47,0.00,,,0.01,,2013-02-25 19:11:00,
2013-02-25 14:22:00,88.0,66.0,29.82,WSW,247,5.0,15.0,48,0.00,,,0.01,,2013-02-25 19:22:00,
2013-02-25 14:32:00,88.0,66.0,29.82,WSW,247,5.0,15.0,48,0.00,,,0.01,,2013-02-25 19:32:00,
2013-02-25 14:42:00,88.0,66.0,29.82,WSW,247,5.0,15.0,48,0.00,,,0.01,,2013-02-25 19:42:00,
2013-02-25 14:52:00,87.0,67.0,29.81,SW,224,4.0,12.0,51,0.00,,,0.01,,2013-02-25 19:52:00,
2013-02-25 15:01:00,89.0,67.0,29.81,SE,140,3.0,9.0,49,0.00,,,0.01,,2013-02-25 20:01:00,
2013-02-25 15:11:00,89.0,67.0,29.81,SE,140,3.0,9.0,49,0.00,,,0.01,,2013-02-25 20:11:00,
2013-02-25 15:22:00,88.0,66.0,29.80,SSW,213,3.0,12.0,48,0.00,,,0.01,,2013-02-25 20:22:00,
2013-02-25 15:32:00,85.0,66.0,29.80,West,260,3.0,9.0,53,0.00,,,0.01,,2013-02-25 20:32:00,
2013-02-25 15:42:00,85.0,66.0,29.80,West,260,3.0,9.0,53,0.00,,,0.01,,2013-02-25 20:42:00,
2013-02-25 15:52:00,85.0,67.0,29.80,South,184,3.0,16.0,55,0.00,,,0.01,,2013-02-25 20:52:00,
2013-02-25 16:02:00,83.0,67.0,29.80,SSW,205,5.0,13.0,58,0.00,,,0.01,,2013-02-25 21:02:00,
2013-02-25 16:11:00,83.0,67.0,29.80,SSW,205,5.0,13.0,58,0.00,,,0.01,,2013-02-25 21:11:00,
2013-02-25 16:21:00,84.0,68.0,29.80,South,177,4.0,15.0,59,0.00,,,0.01,,2013-02-25 21:21:00,
2013-02-25 16:32:00,85.0,68.0,29.80,West,265,4.0,13.0,57,0.00,,,0.01,,2013-02-25 21:32:00,
2013-02-25 16:42:00,85.0,68.0,29.80,West,265,4.0,13.0,57,0.00,,,0.01,,2013-02-25 21:42:00,
2013-02-25 16:52:00,85.0,67.0,29.80,SW,214,4.0,14.0,55,0.00,,,0.01,,2013-02-25 21:52:00,
2013-02-25 17:02:00,84.0,67.0,29.79,SSW,194,2.0,11.0,57,0.00,,,0.01,,2013-02-25 22:02:00,
2013-02-25 17:11:00,84.0,67.0,29.79,SSW,194,2.0,11.0,57,0.00,,,0.01,,2013-02-25 22:11:00,
2013-02-25 17:21:00,83.0,67.0,29.79,SW,232,4.0,10.0,58,0.00,,,0.01,,2013-02-25 22:21:00,
2013-02-25 17:32:00,82.0,66.0,29.79,SSW,196,5.0,13.0,58,0.00,,,0.01,,2013-02-25 22:32:00,
2013-02-25 17:42:00,82.0,66.0,29.79,SSW,196,5.0,13.0,58,0.00,,,0.01,,2013-02-25 22:42:00,
2013-02-25 17:52:00,82.0,66.0,29.79,SSW,210,2.0,8.0,58,0.00,,,0.01,,2013-02-25 22:52:00,
2013-02-25 18:01:00,81.0,66.0,29.80,SW,229,3.0,10.0,60,0.00,,,0.01,,2013-02-25 23:01:00,
2013-02-25 18:11:00,81.0,66.0,29.80,SW,229,3.0,10.0,60,0.00,,,0.01,,2013-02-25 23:11:00,
2013-02-25 18:22:00,80.0,66.0,29.80,South,177,3.0,11.0,62,0.00,,,0.01,,2013-02-25 23:22:00,
2013-02-25 18:32:00,80.0,66.0,29.80,South,177,3.0,11.0,62,0.00,,,0.01,,2013-02-25 23:32:00,
2013-02-25 18:42:00,80.0,66.0,29.80,South,177,3.0,11.0,62,0.00,,,0.01,,2013-02-25 23:42:00,
2013-02-25 18:52:00,78.0,66.0,29.80,SSW,212,2.0,5.0,67,0.00,,,0.01,,2013-02-25 23:52:00,
2013-02-25 19:02:00,77.0,66.0,29.80,SSW,213,1.0,5.0,69,0.00,,,0.01,,2013-02-26 00:02:00,
2013-02-25 19:12:00,77.0,66.0,29.80,SSW,213,1.0,5.0,69,0.00,,,0.01,,2013-02-26 00:12:00,
2013-02-25 19:22:00,76.0,65.0,29.81,South,173,0.0,4.0,70,0.00,,,0.01,,2013-02-26 00:22:00,
2013-02-25 19:32:00,75.0,65.0,29.81,SSW,207,0.0,3.0,72,0.00,,,0.01,,2013-02-26 00:32:00,
2013-02-25 19:42:00,75.0,65.0,29.81,SSW,207,0.0,3.0,72,0.00,,,0.01,,2013-02-26 00:42:00,
2013-02-25 19:52:00,74.0,65.0,29.81,SSW,210,0.0,2.0,74,0.00,,,0.01,,2013-02-26 00:52:00,
2013-02-25 20:02:00,74.0,65.0,29.81,SSW,199,0.0,4.0,73,0.00,,,0.01,,2013-02-26 01:02:00,
2013-02-25 20:11:00,74.0,65.0,29.81,SSW,199,0.0,4.0,73,0.00,,,0.01,,2013-02-26 01:11:00,
2013-02-25 20:21:00,74.0,66.0,29.82,SW,219,0.0,3.0,75,0.00,,,0.01,,2013-02-26 01:21:00,
2013-02-25 20:32:00,74.0,66.0,29.82,SW,226,1.0,4.0,75,0.00,,,0.01,,2013-02-26 01:32:00,
2013-02-25 20:42:00,74.0,66.0,29.82,SW,226,1.0,4.0,75,0.00,,,0.01,,2013-02-26 01:42:00,
2013-02-25 20:52:00,74.0,65.0,29.83,SW,223,1.0,6.0,74,0.00,,,0.01,,2013-02-26 01:52:00,
2013-02-25 21:01:00,74.0,65.0,29.82,SSW,205,0.0,5.0,74,0.00,,,0.01,,2013-02-26 02:01:00,
2013-02-25 21:11:00,74.0,65.0,29.82,SSW,205,0.0,5.0,74,0.00,,,0.01,,2013-02-26 02:11:00,
2013-02-25 21:21:00,73.0,65.0,29.82,SSW,198,0.0,4.0,77,0.00,,,0.01,,2013-02-26 02:21:00,
2013-02-25 21:32:00,72.0,65.0,29.82,SW,215,1.0,6.0,79,0.00,,,0.01,,2013-02-26 02:32:00,
2013-02-25 21:42:00,72.0,65.0,29.82,SW,215,1.0,6.0,79,0.00,,,0.01,,2013-02-26 02:42:00,
2013-02-25 21:52:00,72.0,66.0,29.82,SW,216,1.0,4.0,81,0.00,,,0.01,,2013-02-26 02:52:00,
2013-02-25 22:02:00,72.0,66.0,29.81,SSW,208,0.0,4.0,82,0.00,,,0.01,,2013-02-26 03:02:00,
2013-02-25 22:11:00,72.0,66.0,29.81,SSW,208,0.0,4.0,82,0.00,,,0.01,,2013-02-26 03:11:00,
2013-02-25 22:22:00,72.0,67.0,29.81,South,172,0.0,4.0,83,0.00,,,0.01,,2013-02-26 03:22:00,
2013-02-25 22:32:00,71.0,67.0,29.81,SSW,196,0.0,4.0,86,0.00,,,0.01,,2013-02-26 03:32:00,
2013-02-25 22:42:00,71.0,67.0,29.81,SSW,196,0.0,4.0,86,0.00,,,0.01,,2013-02-26 03:42:00,
2013-02-25 22:52:00,71.0,67.0,29.80,SW,230,0.0,6.0,86,0.00,,,0.01,,2013-02-26 03:52:00,
2013-02-25 23:02:00,71.0,67.0,29.80,South,186,3.0,7.0,87,0.00,,,0.01,,2013-02-26 04:02:00,
2013-02-25 23:11:00,71.0,67.0,29.80,South,186,3.0,7.0,87,0.00,,,0.01,,2013-02-26 04:11:00,
2013-02-25 23:22:00,71.0,67.0,29.81,South,178,0.0,4.0,87,0.00,,,0.01,,2013-02-26 04:22:00,
2013-02-25 23:32:00,71.0,67.0,29.82,SSW,202,1.0,5.0,86,0.00,,,0.01,,2013-02-26 04:32:00,
2013-02-25 23:42:00,71.0,67.0,29.82,SSW,202,1.0,5.0,86,0.00,,,0.01,,2013-02-26 04:42:00,
2013-02-25 23:52:00,71.0,67.0,29.82,SSW,201,2.0,6.0,87,0.00,,,0.01,,2013-02-26 04:52:00,